Location: ???????
(55.5931°N, 39.3286°E)
Time: 12:31:36
(UTC+00:00)

BlueWalker 3 - Pass Details

Date: 14 April 2024
Orbit: 481 x 494 km, 53.2° (Epoch: 26 May)

Event Time Altitude Azimuth Distance (km) Brightness Sun altitude
Exits shadow 22:56:56 26° 114° (ESE) 1,007 3.4 -22.0°
Drops below altitude 10° 22:58:46 10° 105° (ESE) 1,700 4.7 -21.9°
Enters shadow 00:08:15 -43° 290° (WNW) 9,421 8.3 -16.4°
